TimeCST,TemperatureF,Dew PointF,Humidity,Sea Level PressureIn,VisibilityMPH,Wind Direction,Wind SpeedMPH,Gust SpeedMPH,PrecipitationIn,Events,Conditions,WindDirDegrees,DateUTC
12:55 AM,32.5,30.0,90,30.36,10.0,Calm,Calm,-,N/A,,Clear,0,2013-01-23 06:55:00
1:55 AM,32.7,30.2,90,30.35,10.0,Calm,Calm,-,N/A,,Clear,0,2013-01-23 07:55:00
2:55 AM,32.4,29.5,89,30.34,10.0,Calm,Calm,-,N/A,,Clear,0,2013-01-23 08:55:00
3:55 AM,31.5,28.9,90,30.34,10.0,Calm,Calm,-,N/A,,Clear,0,2013-01-23 09:55:00
4:55 AM,30.6,28.4,92,30.36,10.0,Calm,Calm,-,N/A,,Clear,0,2013-01-23 10:55:00
5:55 AM,29.8,27.9,92,30.38,10.0,Calm,Calm,-,N/A,,Clear,0,2013-01-23 11:55:00
6:55 AM,32.5,30.2,91,30.40,10.0,Calm,Calm,-,N/A,,Mostly Cloudy,0,2013-01-23 12:55:00
7:55 AM,38.8,30.7,73,30.40,10.0,Calm,Calm,-,N/A,,Scattered Clouds,0,2013-01-23 13:55:00
8:55 AM,49.3,29.8,47,30.42,10.0,Calm,Calm,-,N/A,,Partly Cloudy,0,2013-01-23 14:55:00
9:55 AM,55.8,31.3,39,30.43,10.0,Calm,Calm,-,N/A,,Partly Cloudy,0,2013-01-23 15:55:00
10:55 AM,58.6,36.0,43,30.41,10.0,Calm,Calm,-,N/A,,Clear,0,2013-01-23 16:55:00
11:55 AM,61.5,38.5,43,30.38,10.0,Calm,Calm,-,N/A,,Partly Cloudy,0,2013-01-23 17:55:00
12:55 PM,63.7,40.6,43,30.35,10.0,Calm,Calm,-,N/A,,Scattered Clouds,0,2013-01-23 18:55:00
1:56 PM,64.4,42.6,45,30.32,10.0,WSW,9.2,-,N/A,,Mostly Cloudy,250,2013-01-23 19:56:00
2:55 PM,62.6,43.2,49,30.31,10.0,South,10.4,-,N/A,,Scattered Clouds,180,2013-01-23 20:55:00
3:55 PM,62.4,45.3,54,30.31,10.0,SSW,12.7,-,N/A,,Partly Cloudy,200,2013-01-23 21:55:00
4:55 PM,59.5,46.0,61,30.31,10.0,SSW,10.4,-,N/A,,Partly Cloudy,200,2013-01-23 22:55:00
5:55 PM,53.1,45.5,75,30.33,10.0,South,5.8,-,N/A,,Partly Cloudy,180,2013-01-23 23:55:00
6:55 PM,51.3,46.4,83,30.34,10.0,South,4.6,-,N/A,,Scattered Clouds,190,2013-01-24 00:55:00
7:55 PM,54.3,46.0,74,30.35,10.0,SW,5.8,-,N/A,,Partly Cloudy,230,2013-01-24 01:55:00
8:55 PM,51.1,45.1,80,30.35,10.0,SW,3.5,-,N/A,,Clear,220,2013-01-24 02:55:00
9:55 PM,49.5,45.3,86,30.34,10.0,SW,5.8,-,N/A,,Clear,230,2013-01-24 03:55:00
10:55 PM,55.0,48.7,79,30.33,10.0,WSW,4.6,-,N/A,,Clear,240,2013-01-24 04:55:00
11:55 PM,54.5,49.1,82,30.33,10.0,WSW,5.8,-,N/A,,Clear,240,2013-01-24 05:55:00